QPF
0.01 0.00 0.00 0.00 0.00 0.00 0.00 0.00 0.00 0.00 0.01 0.01 0.01 0.02 0.02 0.02 0.02 0.03 0.04 0.03 0.03 0.03 0.04 0.05 0.08 0.08 0.06 0.05 0.05 0.07 0.11 0.11 0.07 0.04 0.04 0.05 0.04 0.04 0.03 0.03 0.03 0.02 0.02
0.01 0.00 0.00 0.00 0.00 0.00 0.00 0.00 0.00 0.00 0.01 0.01 0.02 0.02 0.02 0.01 0.02 0.02 0.03 0.03 0.03 0.03 0.03 0.04 0.05 0.08 0.08 0.05 0.05 0.06 0.09 0.11 0.10 0.08 0.05 0.06 0.06 0.05 0.03 0.03 0.03 0.02 0.02
0.01 0.00 0.00 0.00 0.00 0.00 0.00 0.00 0.00 0.00 0.01 0.01 0.02 0.02 0.02 0.02 0.02 0.03 0.04 0.04 0.03 0.02 0.02 0.03 0.04 0.05 0.07 0.07 0.06 0.06 0.07 0.10 0.10 0.09 0.09 0.07 0.05 0.04 0.03 0.03 0.02 0.03 0.02
0.01 0.00 0.00 0.00 0.00 0.00 0.00 0.00 0.00 0.00 0.00 0.01 0.01 0.02 0.02 0.02 0.02 0.03 0.04 0.05 0.05 0.03 0.02 0.03 0.04 0.04 0.05 0.07 0.06 0.05 0.05 0.08 0.11 0.10 0.10 0.10 0.07 0.04 0.03 0.03 0.03 0.03 0.03
0.01 0.01 0.00 0.00 0.00 0.00 0.00 0.00 0.00 0.00 0.00 0.01 0.01 0.01 0.01 0.02 0.02 0.02 0.04 0.05 0.05 0.04 0.03 0.03 0.03 0.04 0.04 0.05 0.07 0.07 0.05 0.06 0.09 0.10 0.10 0.10 0.09 0.06 0.04 0.03 0.03 0.03 0.03
0.01 0.01 0.00 0.00 0.00 0.00 0.00 0.00 0.00 0.00 0.00 0.00 0.01 0.01 0.01 0.02 0.02 0.02 0.03 0.04 0.05 0.05 0.05 0.04 0.03 0.03 0.03 0.03 0.05 0.07 0.07 0.06 0.07 0.09 0.09 0.09 0.08 0.07 0.05 0.04 0.03 0.04 0.03
0.00 0.00 0.00 0.00 0.00 0.00 0.00 0.00 0.00 0.00 0.00 0.00 0.01 0.01 0.01 0.01 0.01 0.02 0.02 0.03 0.04 0.05 0.05 0.04 0.04 0.03 0.02 0.02 0.03 0.04 0.06 0.06 0.06 0.07 0.08 0.09 0.09 0.07 0.06 0.05 0.05 0.04 0.04
0.01 0.00 0.00 0.00 0.00 0.00 0.00 0.00 0.00 0.00 0.00 0.00 0.00 0.01 0.01 0.01 0.01 0.01 0.01 0.02 0.02 0.03 0.05 0.04 0.04 0.04 0.03 0.03 0.02 0.02 0.04 0.05 0.06 0.05 0.06 0.07 0.08 0.08 0.07 0.07 0.07 0.05 0.05
0.01 0.01 0.01 0.00 0.00 0.00 0.00 0.00 0.00 0.00 0.00 0.00 0.00 0.00 0.00 0.00 0.01 0.01 0.01 0.01 0.02 0.02 0.04 0.04 0.04 0.04 0.04 0.04 0.03 0.03 0.02 0.03 0.04 0.05 0.04 0.05 0.06 0.06 0.07 0.07 0.06 0.06 0.06
0.02 0.01 0.01 0.01 0.00 0.00 0.00 0.00 0.00 0.00 0.00 0.00 0.00 0.00 0.00 0.00 0.00 0.01 0.01 0.01 0.01 0.02 0.03 0.03 0.03 0.04 0.05 0.05 0.04 0.04 0.03 0.02 0.03 0.03 0.03 0.03 0.04 0.05 0.06 0.06 0.06 0.05 0.04
0.02 0.02 0.01 0.01 0.01 0.01 0.00 0.00 0.00 0.00 0.00 0.00 0.00 0.00 0.00 0.00 0.00 0.00 0.01 0.01 0.01 0.01 0.02 0.02 0.02 0.03 0.04 0.05 0.05 0.04 0.03 0.03 0.02 0.02 0.02 0.02 0.03 0.04 0.05 0.06 0.06 0.04 0.03
0.01 0.02 0.02 0.01 0.01 0.01 0.00 0.00 0.00 0.00 0.00 0.00 0.00 0.00 0.00 0.00 0.00 0.00 0.00 0.00 0.00 0.01 0.01 0.01 0.02 0.02 0.03 0.03 0.04 0.03 0.03 0.03 0.02 0.02 0.02 0.02 0.02 0.03 0.04 0.05 0.06 0.05 0.03
0.01 0.01 0.01 0.01 0.01 0.01 0.01 0.00 0.00 0.00 0.00 0.00 0.00 0.00 0.00 0.00 0.00 0.00 0.00 0.00 0.00 0.00 0.00 0.01 0.01 0.01 0.02 0.02 0.02 0.03 0.02 0.02 0.02 0.02 0.02 0.02 0.03 0.03 0.03 0.04 0.06 0.06 0.05
0.01 0.01 0.01 0.01 0.01 0.01 0.01 0.01 0.01 0.01 0.00 0.00 0.00 0.00 0.00 0.00 0.00 0.00 0.00 0.00 0.00 0.00 0.00 0.01 0.01 0.01 0.01 0.01 0.01 0.01 0.02 0.02 0.02 0.02 0.02 0.02 0.02 0.03 0.03 0.04 0.04 0.05 0.06
0.00 0.00 0.00 0.00 0.00 0.01 0.01 0.01 0.01 0.02 0.02 0.01 0.00 0.00 0.00 0.00 0.00 0.00 0.00 0.00 0.00 0.00 0.00 0.00 0.01 0.01 0.01 0.01 0.01 0.01 0.02 0.02 0.02 0.02 0.02 0.02 0.02 0.02 0.03 0.04 0.05 0.05 0.06
0.00 0.00 0.00 0.00 0.00 0.01 0.01 0.02 0.02 0.02 0.02 0.03 0.01 0.00 0.00 0.00 0.00 0.00 0.00 0.00 0.00 0.00 0.00 0.00 0.00 0.00 0.00 0.01 0.01 0.02 0.03 0.03 0.02 0.02 0.02 0.02 0.02 0.02 0.03 0.04 0.05 0.06 0.07
0.00 0.00 0.00 0.00 0.00 0.01 0.01 0.02 0.03 0.02 0.02 0.02 0.01 0.01 0.00 0.00 0.00 0.00 0.00 0.00 0.00 0.00 0.00 0.00 0.00 0.00 0.00 0.01 0.01 0.02 0.03 0.03 0.02 0.02 0.01 0.01 0.01 0.02 0.02 0.02 0.03 0.04 0.05
0.00 0.00 0.00 0.00 0.00 0.01 0.01 0.02 0.02 0.02 0.01 0.02 0.02 0.01 0.01 0.00 0.00 0.00 0.00 0.00 0.00 0.00 0.00 0.00 0.00 0.00 0.00 0.01 0.01 0.02 0.02 0.01 0.01 0.01 0.01 0.01 0.01 0.01 0.02 0.02 0.03 0.03 0.03
0.00 0.00 0.00 0.00 0.00 0.00 0.01 0.01 0.02 0.02 0.01 0.02 0.03 0.03 0.02 0.01 0.01 0.00 0.00 0.00 0.00 0.00 0.00 0.00 0.00 0.00 0.00 0.00 0.01 0.02 0.02 0.01 0.01 0.01 0.01 0.01 0.01 0.01 0.02 0.03 0.04 0.03 0.03
0.00 0.00 0.00 0.00 0.00 0.00 0.00 0.01 0.01 0.01 0.01 0.02 0.03 0.03 0.03 0.03 0.03 0.02 0.01 0.00 0.00 0.00 0.00 0.00 0.00 0.00 0.00 0.00 0.01 0.02 0.03 0.02 0.01 0.01 0.01 0.01 0.02 0.02 0.03 0.04 0.05 0.04 0.03
0.00 0.00 0.00 0.00 0.00 0.00 0.00 0.00 0.01 0.01 0.01 0.02 0.02 0.02 0.02 0.02 0.02 0.02 0.01 0.01 0.00 0.00 0.00 0.00 0.00 0.00 0.00 0.00 0.01 0.02 0.03 0.03 0.03 0.02 0.01 0.01 0.02 0.03 0.04 0.04 0.05 0.05 0.04
0.00 0.00 0.00 0.00 0.00 0.00 0.00 0.00 0.00 0.00 0.01 0.01 0.02 0.02 0.02 0.02 0.01 0.01 0.01 0.01 0.01 0.01 0.00 0.00 0.00 0.00 0.00 0.00 0.01 0.01 0.02 0.03 0.03 0.02 0.02 0.02 0.03 0.03 0.04 0.05 0.05 0.05 0.05
0.00 0.00 0.00 0.00 0.00 0.00 0.00 0.00 0.00 0.00 0.00 0.01 0.01 0.01 0.02 0.02 0.01 0.01 0.02 0.02 0.02 0.02 0.01 0.01 0.01 0.01 0.00 0.01 0.01 0.01 0.01 0.02 0.03 0.03 0.03 0.03 0.03 0.03 0.04 0.04 0.04 0.03 0.04
0.00 0.00 0.00 0.00 0.00 0.00 0.00 0.00 0.00 0.00 0.00 0.00 0.01 0.01 0.01 0.01 0.02 0.02 0.02 0.02 0.03 0.03 0.03 0.02 0.01 0.01 0.01 0.01 0.02 0.02 0.02 0.03 0.03 0.03 0.03 0.03 0.02 0.02 0.02 0.03 0.03 0.03 0.03
0.00 0.00 0.00 0.00 0.00 0.00 0.00 0.00 0.00 0.00 0.00 0.00 0.00 0.00 0.00 0.01 0.01 0.01 0.02 0.03 0.04 0.05 0.06 0.05 0.04 0.03 0.03 0.02 0.03 0.05 0.04 0.04 0.04 0.04 0.03 0.02 0.02 0.02 0.02 0.02 0.02 0.03 0.04
0.01 0.01 0.00 0.00 0.00 0.00 0.00 0.00 0.00 0.00 0.00 0.00 0.00 0.00 0.00 0.00 0.01 0.01 0.01 0.02 0.02 0.03 0.04 0.04 0.04 0.03 0.03 0.03 0.03 0.03 0.04 0.04 0.04 0.04 0.04 0.03 0.03 0.03 0.03 0.02 0.02 0.03 0.03
MSLP
1026.35 1026.30 1026.27 1026.25 1026.21 1026.13 1025.98 1025.74 1025.40 1024.99 1024.55 1024.10 1023.71 1023.39 1023.18 1023.05 1023.00 1022.96 1022.91 1022.79 1022.56 1022.21 1021.73 1021.14 1020.48 1019.78 1019.09 1018.44 1017.88 1017.41 1017.05 1016.81 1016.67 1016.63 1016.68 1016.80 1016.98 1017.20 1017.45 1017.69 1017.92 1018.11 1018.25
1026.81 1026.78 1026.76 1026.76 1026.74 1026.68 1026.55 1026.34 1026.04 1025.68 1025.27 1024.86 1024.48 1024.18 1023.96 1023.84 1023.77 1023.74 1023.68 1023.56 1023.35 1023.02 1022.56 1022.00 1021.36 1020.68 1019.99 1019.34 1018.75 1018.25 1017.84 1017.53 1017.32 1017.20 1017.18 1017.24 1017.38 1017.59 1017.84 1018.12 1018.41 1018.69 1018.93
1027.24 1027.24 1027.23 1027.23 1027.21 1027.16 1027.05 1026.88 1026.63 1026.32 1025.98 1025.62 1025.30 1025.02 1024.82 1024.68 1024.60 1024.54 1024.47 1024.34 1024.12 1023.80 1023.38 1022.85 1022.24 1021.59 1020.94 1020.30 1019.71 1019.18 1018.73 1018.37 1018.09 1017.91 1017.81 1017.80 1017.89 1018.06 1018.30 1018.61 1018.94 1019.28 1019.61
1027.67 1027.70 1027.70 1027.69 1027.67 1027.62 1027.53 1027.40 1027.21 1026.98 1026.71 1026.43 1026.16 1025.92 1025.73 1025.58 1025.47 1025.37 1025.25 1025.09 1024.86 1024.54 1024.13 1023.64 1023.08 1022.48 1021.87 1021.27 1020.70 1020.18 1019.71 1019.32 1019.00 1018.75 1018.59 1018.52 1018.55 1018.67 1018.88 1019.17 1019.52 1019.89 1020.27
1028.10 1028.17 1028.20 1028.19 1028.15 1028.10 1028.03 1027.94 1027.81 1027.65 1027.47 1027.27 1027.06 1026.86 1026.67 1026.49 1026.34 1026.18 1026.00 1025.79 1025.53 1025.20 1024.81 1024.35 1023.84 1023.30 1022.75 1022.20 1021.67 1021.18 1020.73 1020.34 1019.99 1019.72 1019.51 1019.39 1019.35 1019.41 1019.57 1019.82 1020.14 1020.50 1020.88
1028.57 1028.70 1028.74 1028.73 1028.69 1028.63 1028.57 1028.51 1028.44 1028.36 1028.25 1028.11 1027.95 1027.78 1027.58 1027.37 1027.16 1026.93 1026.69 1026.42 1026.12 1025.77 1025.39 1024.96 1024.50 1024.01 1023.52 1023.04 1022.57 1022.13 1021.72 1021.35 1021.02 1020.74 1020.51 1020.35 1020.26 1020.25 1020.34 1020.51 1020.76 1021.08 1021.42
1029.12 1029.30 1029.36 1029.35 1029.29 1029.22 1029.16 1029.12 1029.09 1029.05 1029.00 1028.91 1028.79 1028.62 1028.40 1028.16 1027.88 1027.58 1027.27 1026.94 1026.60 1026.24 1025.86 1025.46 1025.04 1024.61 1024.18 1023.76 1023.36 1022.97 1022.62 1022.29 1021.99 1021.73 1021.50 1021.32 1021.18 1021.12 1021.12 1021.21 1021.36 1021.59 1021.85
1029.78 1030.00 1030.08 1030.05 1029.96 1029.87 1029.79 1029.74 1029.72 1029.71 1029.68 1029.62 1029.50 1029.32 1029.08 1028.79 1028.45 1028.09 1027.72 1027.35 1026.97 1026.60 1026.23 1025.85 1025.47 1025.09 1024.71 1024.34 1023.99 1023.67 1023.36 1023.09 1022.83 1022.60 1022.39 1022.20 1022.05 1021.93 1021.86 1021.85 1021.90 1022.01 1022.18
1030.57 1030.81 1030.88 1030.82 1030.69 1030.55 1030.44 1030.36 1030.32 1030.30 1030.27 1030.19 1030.06 1029.85 1029.57 1029.23 1028.84 1028.44 1028.03 1027.63 1027.24 1026.88 1026.52 1026.16 1025.81 1025.46 1025.12 1024.78 1024.47 1024.18 1023.92 1023.69 1023.48 1023.29 1023.11 1022.94 1022.77 1022.62 1022.49 1022.39 1022.34 1022.35 1022.41
1031.47 1031.71 1031.74 1031.63 1031.45 1031.25 1031.08 1030.95 1030.86 1030.80 1030.72 1030.61 1030.44 1030.19 1029.86 1029.48 1029.06 1028.63 1028.20 1027.80 1027.43 1027.08 1026.74 1026.41 1026.08 1025.75 1025.42 1025.10 1024.80 1024.52 1024.29 1024.08 1023.92 1023.76 1023.62 1023.48 1023.32 1023.15 1022.98 1022.83 1022.70 1022.61 1022.59
1032.42 1032.63 1032.61 1032.44 1032.19 1031.92 1031.67 1031.48 1031.32 1031.20 1031.06 1030.89 1030.66 1030.35 1029.98 1029.56 1029.12 1028.68 1028.27 1027.88 1027.54 1027.22 1026.92 1026.62 1026.31 1025.98 1025.64 1025.31 1024.99 1024.71 1024.48 1024.29 1024.14 1024.02 1023.92 1023.80 1023.67 1023.52 1023.34 1023.15 1022.98 1022.83 1022.74
1033.35 1033.50 1033.43 1033.19 1032.87 1032.53 1032.21 1031.94 1031.72 1031.52 1031.31 1031.06 1030.76 1030.40 1029.99 1029.54 1029.09 1028.65 1028.26 1027.92 1027.61 1027.34 1027.07 1026.79 1026.49 1026.16 1025.80 1025.44 1025.10 1024.79 1024.53 1024.34 1024.21 1024.11 1024.04 1023.97 1023.87 1023.75 1023.58 1023.40 1023.21 1023.03 1022.90
1034.17 1034.26 1034.13 1033.83 1033.45 1033.05 1032.67 1032.34 1032.05 1031.77 1031.49 1031.18 1030.81 1030.40 1029.94 1029.47 1029.01 1028.59 1028.23 1027.92 1027.66 1027.42 1027.19 1026.93 1026.64 1026.29 1025.91 1025.52 1025.13 1024.79 1024.51 1024.30 1024.16 1024.08 1024.04 1024.00 1023.95 1023.87 1023.74 1023.57 1023.39 1023.22 1023.08
1034.82 1034.85 1034.66 1034.32 1033.90 1033.46 1033.04 1032.67 1032.33 1032.00 1031.65 1031.28 1030.85 1030.39 1029.89 1029.40 1028.94 1028.53 1028.19 1027.92 1027.69 1027.49 1027.28 1027.03 1026.73 1026.37 1025.97 1025.54 1025.12 1024.74 1024.43 1024.20 1024.06 1023.99 1023.97 1023.96 1023.95 1023.90 1023.81 1023.69 1023.53 1023.38 1023.24
1035.26 1035.23 1035.00 1034.63 1034.19 1033.75 1033.32 1032.93 1032.56 1032.20 1031.81 1031.39 1030.92 1030.41 1029.89 1029.38 1028.91 1028.51 1028.18 1027.92 1027.71 1027.52 1027.32 1027.07 1026.76 1026.39 1025.96 1025.50 1025.05 1024.65 1024.32 1024.08 1023.93 1023.86 1023.85 1023.87 1023.88 1023.87 1023.81 1023.72 1023.60 1023.47 1023.35
1035.50 1035.41 1035.15 1034.77 1034.34 1033.91 1033.50 1033.12 1032.75 1032.38 1031.97 1031.52 1031.03 1030.49 1029.95 1029.42 1028.93 1028.52 1028.19 1027.92 1027.71 1027.51 1027.30 1027.04 1026.71 1026.32 1025.87 1025.40 1024.94 1024.52 1024.17 1023.92 1023.77 1023.70 1023.70 1023.72 1023.75 1023.76 1023.73 1023.66 1023.56 1023.46 1023.36
1035.56 1035.43 1035.14 1034.77 1034.37 1033.98 1033.60 1033.25 1032.90 1032.54 1032.13 1031.67 1031.16 1030.61 1030.05 1029.50 1029.00 1028.57 1028.22 1027.93 1027.69 1027.46 1027.22 1026.93 1026.58 1026.16 1025.70 1025.22 1024.76 1024.33 1023.99 1023.74 1023.59 1023.52 1023.51 1023.53 1023.56 1023.57 1023.54 1023.49 1023.41 1023.32 1023.23
1035.51 1035.33 1035.03 1034.68 1034.31 1033.96 1033.64 1033.32 1033.01 1032.66 1032.26 1031.81 1031.30 1030.74 1030.17 1029.61 1029.10 1028.65 1028.26 1027.93 1027.64 1027.37 1027.08 1026.75 1026.36 1025.93 1025.45 1024.97 1024.51 1024.09 1023.76 1023.52 1023.36 1023.28 1023.27 1023.28 1023.29 1023.29 1023.26 1023.20 1023.13 1023.05 1022.98
1035.40 1035.17 1034.87 1034.54 1034.21 1033.91 1033.62 1033.35 1033.06 1032.73 1032.35 1031.91 1031.40 1030.85 1030.28 1029.72 1029.19 1028.71 1028.29 1027.92 1027.57 1027.24 1026.89 1026.51 1026.09 1025.63 1025.14 1024.66 1024.20 1023.80 1023.48 1023.24 1023.09 1023.01 1022.97 1022.96 1022.96 1022.94 1022.89 1022.83 1022.76 1022.69 1022.63
1035.26 1035.00 1034.70 1034.39 1034.10 1033.83 1033.58 1033.34 1033.07 1032.75 1032.38 1031.94 1031.45 1030.91 1030.34 1029.78 1029.24 1028.75 1028.30 1027.88 1027.48 1027.09 1026.69 1026.25 1025.79 1025.30 1024.80 1024.31 1023.86 1023.48 1023.16 1022.94 1022.78 1022.69 1022.64 1022.61 1022.58 1022.55 1022.49 1022.43 1022.36 1022.30 1022.27
1035.15 1034.86 1034.57 1034.28 1034.01 1033.77 1033.54 1033.30 1033.03 1032.72 1032.35 1031.91 1031.42 1030.89 1030.34 1029.78 1029.25 1028.74 1028.27 1027.82 1027.38 1026.93 1026.48 1026.00 1025.49 1024.97 1024.46 1023.97 1023.52 1023.15 1022.84 1022.62 1022.46 1022.36 1022.30 1022.25 1022.21 1022.16 1022.11 1022.05 1022.00 1021.96 1021.96
1035.06 1034.77 1034.49 1034.22 1033.97 1033.73 1033.50 1033.25 1032.97 1032.64 1032.25 1031.80 1031.31 1030.79 1030.25 1029.71 1029.19 1028.68 1028.20 1027.72 1027.25 1026.77 1026.27 1025.76 1025.22 1024.68 1024.15 1023.66 1023.22 1022.84 1022.54 1022.32 1022.16 1022.05 1021.98 1021.93 1021.89 1021.84 1021.80 1021.76 1021.74 1021.74 1021.78
1035.00 1034.73 1034.46 1034.21 1033.97 1033.72 1033.47 1033.19 1032.88 1032.51 1032.09 1031.63 1031.13 1030.61 1030.08 1029.56 1029.05 1028.55 1028.07 1027.59 1027.10 1026.60 1026.08 1025.54 1024.99 1024.44 1023.91 1023.41 1022.97 1022.60 1022.30 1022.08 1021.92 1021.81 1021.74 1021.70 1021.66 1021.64 1021.62 1021.61 1021.63 1021.68 1021.76
1034.99 1034.74 1034.49 1034.24 1034.00 1033.73 1033.44 1033.12 1032.75 1032.34 1031.89 1031.40 1030.89 1030.36 1029.84 1029.34 1028.84 1028.36 1027.89 1027.41 1026.93 1026.42 1025.90 1025.35 1024.80 1024.25 1023.73 1023.24 1022.81 1022.45 1022.16 1021.94 1021.78 1021.68 1021.61 1021.57 1021.56 1021.56 1021.58 1021.63 1021.69 1021.79 1021.91
1035.01 1034.78 1034.54 1034.30 1034.03 1033.73 1033.40 1033.02 1032.60 1032.13 1031.64 1031.12 1030.59 1030.06 1029.55 1029.05 1028.57 1028.11 1027.65 1027.19 1026.71 1026.22 1025.71 1025.18 1024.64 1024.12 1023.61 1023.15 1022.74 1022.39 1022.11 1021.90 1021.76 1021.66 1021.61 1021.59 1021.60 1021.64 1021.70 1021.79 1021.90 1022.04 1022.20
1035.07 1034.84 1034.60 1034.34 1034.03 1033.69 1033.30 1032.87 1032.39 1031.87 1031.34 1030.79 1030.24 1029.71 1029.20 1028.71 1028.25 1027.80 1027.35 1026.91 1026.46 1025.99 1025.50 1025.01 1024.51 1024.02 1023.56 1023.13 1022.76 1022.44 1022.18 1021.99 1021.86 1021.78 1021.74 1021.75 1021.78 1021.85 1021.95 1022.07 1022.22 1022.38 1022.56
Thickness
5512 5507 5502 5498 5496 5495 5493 5492 5490 5489 5488 5489 5489 5490 5490 5489 5488 5488 5488 5489 5491 5493 5496 5500 5503 5506 5509 5512 5515 5519 5524 5528 5532 5538 5543 5548 5552 5555 5557 5560 5563 5566 5568
5504 5498 5493 5489 5487 5485 5482 5480 5478 5476 5475 5474 5473 5474 5473 5473 5473 5472 5473 5474 5475 5477 5480 5483 5486 5489 5492 5496 5499 5503 5508 5512 5515 5520 5526 5534 5540 5543 5544 5546 5549 5552 5555
5496 5490 5485 5481 5477 5474 5471 5468 5465 5463 5461 5460 5459 5458 5459 5459 5459 5458 5458 5457 5458 5460 5463 5466 5469 5473 5476 5480 5483 5486 5491 5496 5499 5502 5506 5515 5525 5527 5531 5533 5535 5537 5540
5487 5481 5476 5471 5467 5463 5459 5456 5452 5450 5447 5445 5445 5444 5445 5445 5444 5442 5443 5442 5443 5445 5447 5449 5453 5456 5460 5463 5467 5470 5474 5478 5483 5486 5489 5494 5500 5507 5516 5520 5521 5523 5526
5477 5472 5466 5461 5456 5450 5446 5443 5440 5437 5434 5432 5430 5430 5430 5429 5428 5428 5429 5429 5430 5431 5432 5434 5437 5440 5443 5447 5450 5454 5457 5461 5466 5470 5474 5478 5482 5489 5497 5506 5508 5509 5512
5467 5461 5455 5449 5444 5439 5435 5431 5429 5425 5422 5419 5417 5416 5415 5415 5415 5415 5416 5416 5417 5417 5418 5419 5421 5424 5427 5431 5434 5438 5442 5445 5449 5453 5458 5462 5467 5473 5478 5487 5493 5496 5499
5458 5452 5445 5439 5434 5428 5423 5419 5417 5413 5409 5407 5404 5402 5401 5400 5401 5401 5401 5402 5403 5403 5404 5404 5406 5408 5411 5415 5419 5422 5426 5429 5433 5438 5442 5446 5450 5454 5459 5466 5474 5479 5483
5448 5441 5435 5428 5423 5417 5412 5408 5404 5400 5397 5394 5392 5389 5387 5387 5387 5386 5386 5387 5387 5388 5389 5390 5392 5393 5396 5400 5403 5407 5411 5415 5418 5422 5426 5430 5434 5437 5442 5448 5455 5462 5469
5437 5430 5423 5417 5411 5405 5400 5396 5392 5388 5384 5381 5378 5376 5375 5373 5373 5373 5372 5372 5373 5373 5374 5376 5377 5379 5382 5385 5388 5392 5396 5400 5404 5407 5411 5415 5419 5422 5427 5432 5437 5444 5454
5425 5418 5411 5404 5398 5392 5387 5383 5379 5375 5371 5368 5366 5363 5362 5361 5360 5360 5360 5359 5360 5360 5360 5362 5363 5366 5368 5370 5374 5378 5381 5386 5390 5393 5397 5402 5406 5409 5413 5417 5422 5428 5435
5413 5406 5399 5392 5386 5380 5375 5371 5367 5363 5359 5356 5353 5351 5350 5349 5348 5348 5347 5347 5347 5346 5347 5348 5350 5352 5354 5356 5360 5363 5367 5372 5376 5380 5384 5389 5392 5397 5400 5404 5408 5414 5420
5402 5394 5388 5381 5375 5369 5364 5359 5355 5351 5347 5344 5342 5340 5339 5337 5336 5336 5335 5334 5334 5334 5334 5335 5337 5339 5341 5344 5347 5351 5354 5358 5363 5367 5371 5376 5379 5385 5388 5392 5396 5400 5406
5390 5384 5377 5371 5365 5359 5354 5348 5344 5340 5336 5333 5331 5329 5328 5326 5325 5324 5322 5322 5322 5322 5322 5323 5325 5327 5329 5332 5335 5338 5341 5345 5350 5354 5359 5364 5368 5373 5376 5380 5384 5388 5392
5379 5373 5367 5361 5355 5348 5343 5338 5334 5329 5325 5322 5320 5319 5317 5315 5313 5312 5311 5310 5310 5310 5311 5312 5313 5315 5318 5320 5323 5326 5330 5334 5338 5342 5347 5352 5356 5360 5364 5368 5372 5376 5379
5367 5361 5356 5350 5344 5337 5332 5328 5324 5319 5315 5312 5310 5308 5306 5303 5302 5301 5300 5299 5299 5299 5300 5301 5303 5305 5307 5310 5312 5315 5319 5324 5328 5332 5336 5340 5344 5348 5352 5357 5361 5364 5368
5357 5351 5345 5339 5332 5326 5321 5317 5313 5308 5304 5301 5300 5297 5295 5293 5291 5290 5289 5289 5289 5289 5290 5291 5293 5295 5297 5299 5302 5305 5310 5314 5318 5322 5326 5330 5334 5338 5342 5346 5349 5353 5356
5346 5340 5334 5327 5321 5314 5309 5305 5301 5297 5294 5291 5290 5287 5284 5282 5281 5280 5279 5279 5280 5280 5281 5282 5283 5286 5288 5289 5293 5296 5300 5304 5308 5311 5315 5320 5324 5327 5331 5335 5339 5342 5345
5334 5328 5321 5315 5309 5303 5298 5294 5289 5286 5283 5281 5279 5277 5274 5273 5271 5270 5270 5270 5271 5271 5272 5273 5274 5276 5278 5280 5283 5286 5290 5294 5298 5301 5305 5309 5314 5317 5320 5324 5329 5333 5337
5321 5315 5309 5303 5298 5293 5288 5283 5279 5276 5273 5271 5268 5266 5265 5263 5262 5262 5262 5261 5261 5262 5262 5264 5265 5267 5269 5270 5273 5276 5281 5285 5289 5292 5296 5299 5303 5307 5310 5313 5319 5324 5328
5308 5303 5298 5292 5288 5283 5277 5272 5269 5266 5264 5261 5259 5256 5255 5254 5253 5253 5252 5252 5252 5253 5253 5254 5255 5257 5260 5261 5264 5267 5271 5276 5280 5284 5287 5291 5294 5297 5299 5302 5307 5312 5318
5297 5291 5286 5281 5277 5272 5267 5264 5260 5257 5254 5251 5249 5247 5246 5245 5245 5244 5244 5243 5243 5243 5244 5246 5247 5249 5251 5253 5255 5258 5261 5265 5270 5274 5278 5282 5284 5288 5291 5294 5298 5303 5306
5286 5280 5276 5271 5266 5261 5257 5255 5251 5248 5244 5241 5240 5238 5237 5236 5235 5235 5234 5234 5234 5235 5236 5238 5240 5242 5243 5245 5248 5250 5253 5257 5260 5265 5269 5272 5275 5278 5281 5285 5289 5292 5294
5275 5270 5265 5260 5256 5252 5248 5245 5242 5238 5235 5232 5231 5229 5228 5227 5226 5225 5226 5226 5226 5227 5228 5230 5232 5235 5237 5239 5241 5244 5246 5249 5252 5256 5260 5263 5265 5268 5272 5275 5278 5280 5283
5265 5260 5255 5251 5247 5242 5238 5235 5232 5229 5226 5224 5222 5221 5220 5219 5218 5217 5216 5217 5218 5219 5221 5222 5225 5227 5229 5232 5234 5236 5239 5242 5245 5248 5251 5254 5257 5259 5261 5264 5266 5269 5272
5254 5249 5245 5241 5237 5233 5230 5226 5223 5220 5218 5216 5215 5213 5212 5211 5210 5209 5208 5208 5209 5210 5213 5215 5217 5219 5223 5225 5226 5229 5232 5234 5237 5240 5242 5246 5248 5250 5252 5254 5256 5259 5261
5245 5240 5236 5232 5228 5224 5221 5218 5215 5212 5210 5209 5208 5206 5205 5203 5202 5201 5201 5201 5202 5204 5205 5206 5208 5211 5214 5217 5219 5222 5224 5226 5229 5231 5234 5236 5238 5240 5242 5244 5246 5249 5252